Location: Ch�tillon
(48.8024°N, 2.2935°E)
Time: 02:54:42
(UTC+00:00)

SKYMED 2 - Pass Details

Date: 16 October 2021
Orbit: 621 x 623 km, 97.9° (Epoch: 29 November)

Event Time Altitude Azimuth Distance (km) Brightness Sun altitude
Rises 17:49:10 0° 16° (NNE) 2,918 6.8 -9.0°
Reaches altitude 10° 17:51:24 10° 20° (NNE) 2,006 6.0 -9.4°
Maximum altitude 17:55:44 61° 101° (ESE) 711 3.6 -10.1°
Drops below altitude 10° 18:00:00 10° 182° (S) 1,988 6.2 -10.8°
Sets 18:02:12 0° 186° (S) 2,890 7.1 -11.1°
